Location: Cussy
(47.0410°N, 4.6412°E)
Time: 06:40:47
(UTC+00:00)

COSMO-SKYMED 1 - Pass Details

Date: 30 November 2020
Orbit: 621 x 623 km, 97.9° (Epoch: 18 January)

Event Time Altitude Azimuth Distance (km) Brightness Sun altitude
Exits shadow 18:41:50 22° 340° (NNW) 1,382 4.4 -27.8°
Maximum altitude 18:43:55 34° 292° (WNW) 1,033 4.1 -28.1°
Drops below altitude 10° 18:47:50 10° 228° (SW) 1,991 5.7 -28.8°
Sets 18:50:09 0° 219° (SW) 2,893 6.5 -29.2°
